sat.trackr.live / text

‹ back to catalog

STARLINK-36539

NORAD 67446 · 2026-008B

PAYLOAD ACTIVE UNKNOWN

§ Identity

Operator
Country
US
Launch date
2026-01-14
Launch site
AFETR
Launch vehicle
Mass (kg)
RCS (m²)

Purposes: comms

External: N2YO · Heavens-Above · Gunter

§ Orbital elements

Epoch: 2026-09-19T05:06:05.838912Z

Period
94.27 min
Inclination
43.0009°
Eccentricity
0.0001513
Mean motion
15.27584055 rev/d
Perigee alt
482.0 km
Apogee alt
484.1 km
Semi-major
6,861.2 km
B*
3.6269e-4
RAAN
192.7834°
Arg perigee
270.8426°
Mean anomaly
89.2252°
Rev number
3,916

§ Raw data

STARLINK-365391 67446U 26008B   26262.21256758  .00009733  00000+0  36269-3 0  99972 67446  43.0009 192.7834 0001513 270.8426  89.2252 15.27584055 39167

JSON: /api/v1/satellites/67446 · /tle

For live sub-satellite position, see the globe view (requires WebGL).

§ Visibility from observer

Set your observer location to see the next 7 days of passes ≥ 10°. The values pass through the URL so the page stays shareable.

No JS? Fill the form by hand. The geolocation button needs JavaScript.